Lamoni, IA

3:26 PM CDT on August 25, 2016 (GMT -0500)
Lamoni Municipal

Weather History for KLWD - July, 2013

Change the Weather History Date:

Thursday, July 25, 2013

  Actual Average Record
Temperature  
Mean Temperature 73 °F 75 °F  
Max Temperature 83 °F 85 °F 104 °F (2012)
Min Temperature 63 °F 66 °F 54 °F (2004)
Degree Days  
Heating Degree Days 0 0  
Month to date heating degree days 0 0  
Since 1 June heating degree days 32 19  
Since 1 July heating degree days 0 0  
Cooling Degree Days 8 10  
Month to date cooling degree days 273 253  
Year to date cooling degree days 530 500  
Since 1 June cooling degree days 454 446  
Growing Degree Days 22 (Base 50)    
Moisture  
Dew Point 63 °F    
Average Humidity 69    
Maximum Humidity 87    
Minimum Humidity 51    
Precipitation  
Precipitation 0.09 in 0.16 in 3.03 in (1992)
Month to date precipitation 1.96 4.10  
Sea Level Pressure  
Sea Level Pressure 30.04 in    
Wind  
Wind Speed 7 mph (South)    
Max Wind Speed 17 mph    
Max Gust Speed 22 mph    
Visibility 10 miles    
Events Rain , Thunderstorm    
T = Trace of Precipitation, MM = Missing Value Source: NWS Daily Summary

Daily Weather History Graph

Daily Weather History Graph

Search for Another Location

Airport or City:

Trip Planner

Search our weather history database for the weather conditions in past years. The results will help you decide how hot, cold, wet, or windy it might be!

Date:

Astronomy

Jul. 25, 2013 Rise Set
Actual Time 6:06 AM CDT 8:37 PM CDT
Civil Twilight 5:34 AM CDT 9:08 PM CDT
Nautical Twilight 4:55 AM CDT 9:47 PM CDT
Astronomical Twilight 4:12 AM CDT 10:31 PM CDT
Moon 10:17 PM CDT 9:37 AM CDT
Length of Visible Light 15h 33m
Length of Day
14h 31m
Waning Gibbous, 88% of the Moon is Illuminated
Jul 25
Waning Gibbous
Jul 29
Last Quarter
Aug 6
New
Aug 14
First Quarter
Aug 20
Full

Hourly Weather History & Observations

Time (CDT) Temp. Heat Index Dew Point Humidity Pressure Visibility Wind Dir Wind Speed Gust Speed Precip Events Conditions
12:53 AM 68.0 °F - 57.9 °F 70% 30.04 in 10.0 mi SSE 4.6 mph - N/A   Clear
1:53 AM 64.9 °F - 57.9 °F 78% 30.05 in 10.0 mi South 5.8 mph - N/A   Clear
2:53 AM 64.0 °F - 57.9 °F 80% 30.05 in 10.0 mi South 5.8 mph - N/A   Clear
3:53 AM 64.0 °F - 57.9 °F 80% 30.06 in 10.0 mi South 5.8 mph - N/A   Clear
4:53 AM 63.0 °F - 57.9 °F 84% 30.05 in 10.0 mi South 6.9 mph - N/A   Clear
5:53 AM 63.0 °F - 57.9 °F 84% 30.05 in 10.0 mi South 5.8 mph - N/A   Clear
6:53 AM 63.0 °F - 57.9 °F 84% 30.05 in 10.0 mi South 4.6 mph - N/A   Clear
7:53 AM 64.9 °F - 60.1 °F 84% 30.07 in 10.0 mi SSW 4.6 mph - N/A   Clear
8:53 AM 71.1 °F - 61.0 °F 70% 30.08 in 10.0 mi SSW 8.1 mph - N/A   Clear
9:53 AM 73.9 °F - 61.0 °F 64% 30.08 in 10.0 mi SSW 8.1 mph - N/A   Clear
10:53 AM 78.1 °F - 62.1 °F 58% 30.08 in 10.0 mi South 6.9 mph - N/A   Clear
11:53 AM 80.1 °F 81.2 °F 62.1 °F 54% 30.07 in 10.0 mi SSW 9.2 mph - N/A   Clear
12:53 PM 80.1 °F 81.1 °F 61.0 °F 52% 30.06 in 10.0 mi SSE 8.1 mph - N/A   Scattered Clouds
1:53 PM 82.0 °F 83.0 °F 62.1 °F 51% 30.05 in 10.0 mi Variable 6.9 mph - N/A   Clear
2:53 PM 81.0 °F 82.2 °F 63.0 °F 54% 30.03 in 10.0 mi Variable 5.8 mph - N/A   Clear
3:53 PM 81.0 °F 81.9 °F 62.1 °F 52% 30.02 in 10.0 mi South 6.9 mph - N/A   Mostly Cloudy
4:21 PM 78.8 °F - 66.2 °F 65% 30.05 in 10.0 mi SSW 4.6 mph - 0.03 in Thunderstorm Overcast
4:49 PM 71.6 °F - 66.2 °F 83% 30.05 in 10.0 mi South 8.1 mph - 0.03 in Thunderstorm Overcast
4:50 PM 72.0 °F - 66.9 °F 84% 30.04 in 10.0 mi SSW 6.9 mph 17.3 mph 0.03 in Thunderstorm Overcast
5:17 PM 73.4 °F - 66.2 °F 78% 30.05 in 10.0 mi South 5.8 mph - 0.00 in   Mostly Cloudy
5:53 PM 73.0 °F - 66.9 °F 81% 30.02 in 10.0 mi South 6.9 mph - 0.00 in   Partly Cloudy
6:53 PM 75.0 °F - 68.0 °F 79% 30.01 in 10.0 mi SW 5.8 mph - N/A   Mostly Cloudy
7:53 PM 73.9 °F - 66.0 °F 76% 30.01 in 10.0 mi SW 12.7 mph - N/A   Clear
8:53 PM 72.0 °F - 66.0 °F 81% 30.01 in 10.0 mi SW 6.9 mph - N/A   Clear
9:53 PM 71.1 °F - 66.0 °F 84% 30.01 in 10.0 mi SSW 6.9 mph - N/A   Mostly Cloudy
10:53 PM 69.1 °F - 64.9 °F 87% 30.01 in 5.0 mi South 5.8 mph - 0.03 in Rain Rain
11:53 PM 69.1 °F - 66.0 °F 90% 30.01 in 10.0 mi South 3.5 mph - 0.03 in   Overcast